TimeEDT,TemperatureF,Dew PointF,Humidity,Sea Level PressureIn,VisibilityMPH,Wind Direction,Wind SpeedMPH,Gust SpeedMPH,PrecipitationIn,Events,Conditions,WindDirDegrees,DateUTC
12:15 AM,61.9,61.9,100,30.00,2.0,Calm,Calm,-,N/A,,Mostly Cloudy,0,2013-05-11 04:15:00
12:55 AM,61.9,61.9,100,29.99,4.0,Calm,Calm,-,N/A,,Overcast,0,2013-05-11 04:55:00
1:15 AM,62.1,62.1,100,29.99,5.0,Calm,Calm,-,N/A,,Overcast,0,2013-05-11 05:15:00
1:35 AM,61.9,61.9,100,29.98,5.0,Calm,Calm,-,N/A,,Overcast,0,2013-05-11 05:35:00
1:55 AM,62.1,62.1,100,29.98,5.0,Calm,Calm,-,N/A,,Overcast,0,2013-05-11 05:55:00
2:15 AM,61.9,61.9,100,29.97,5.0,Calm,Calm,-,N/A,,Overcast,0,2013-05-11 06:15:00
2:35 AM,61.7,61.7,100,29.96,4.0,Calm,Calm,-,N/A,,Overcast,0,2013-05-11 06:35:00
2:55 AM,61.3,61.3,100,29.96,5.0,Calm,Calm,-,N/A,,Mostly Cloudy,0,2013-05-11 06:55:00
3:15 AM,61.3,61.3,100,29.95,5.0,Calm,Calm,-,N/A,,Scattered Clouds,0,2013-05-11 07:15:00
3:35 AM,60.6,60.6,100,29.96,2.0,Calm,Calm,-,N/A,,Mostly Cloudy,0,2013-05-11 07:35:00
3:55 AM,60.4,60.4,100,29.95,4.0,Calm,Calm,-,N/A,,Overcast,0,2013-05-11 07:55:00
4:15 AM,60.1,60.1,100,29.95,2.5,Calm,Calm,-,N/A,,Mostly Cloudy,0,2013-05-11 08:15:00
4:35 AM,60.3,60.3,100,29.95,5.0,Calm,Calm,-,N/A,,Overcast,0,2013-05-11 08:35:00
4:55 AM,60.3,60.3,100,29.95,5.0,Calm,Calm,-,N/A,,Overcast,0,2013-05-11 08:55:00
5:15 AM,60.3,60.3,100,29.94,5.0,Calm,Calm,-,N/A,,Overcast,0,2013-05-11 09:15:00
5:35 AM,60.8,60.8,100,29.94,7.0,West,3.5,-,N/A,,Overcast,260,2013-05-11 09:35:00
5:55 AM,60.8,60.8,100,29.95,7.0,Calm,Calm,-,N/A,,Overcast,0,2013-05-11 09:55:00
6:15 AM,60.8,60.8,100,29.95,7.0,Calm,Calm,-,N/A,,Overcast,0,2013-05-11 10:15:00
6:35 AM,60.8,60.8,100,29.95,5.0,Calm,Calm,-,N/A,,Overcast,0,2013-05-11 10:35:00
6:55 AM,60.8,60.8,100,29.95,5.0,West,3.5,-,N/A,,Overcast,270,2013-05-11 10:55:00
7:15 AM,61.0,61.0,100,29.95,4.0,West,3.5,-,N/A,Rain,Light Rain,270,2013-05-11 11:15:00
7:35 AM,61.0,61.0,100,29.95,7.0,West,6.9,-,N/A,Rain,Light Rain,260,2013-05-11 11:35:00
7:55 AM,61.0,61.0,100,29.94,5.0,West,5.8,-,0.01,Rain,Light Rain,260,2013-05-11 11:55:00
8:15 AM,60.8,60.8,100,29.94,7.0,West,5.8,-,N/A,,Overcast,270,2013-05-11 12:15:00
8:35 AM,60.4,60.4,100,29.95,2.0,West,8.1,-,0.06,Rain,Heavy Rain,260,2013-05-11 12:35:00
8:55 AM,60.1,60.1,100,29.95,2.5,West,8.1,-,0.09,Rain,Light Rain,270,2013-05-11 12:55:00
9:15 AM,60.3,60.3,100,29.96,5.0,West,9.2,-,N/A,,Overcast,260,2013-05-11 13:15:00
9:35 AM,60.4,60.4,100,29.96,2.5,West,8.1,-,N/A,,Overcast,270,2013-05-11 13:35:00
9:55 AM,60.6,60.6,100,29.95,3.0,West,8.1,-,N/A,,Overcast,270,2013-05-11 13:55:00
10:15 AM,60.6,60.6,100,29.95,3.0,West,9.2,-,N/A,,Overcast,270,2013-05-11 14:15:00
10:35 AM,60.8,60.8,100,29.95,3.0,West,8.1,-,N/A,,Overcast,270,2013-05-11 14:35:00
10:55 AM,61.7,61.7,100,29.96,5.0,West,5.8,-,N/A,,Overcast,270,2013-05-11 14:55:00
11:15 AM,62.1,62.1,100,29.96,5.0,West,9.2,-,N/A,,Overcast,270,2013-05-11 15:15:00
11:35 AM,61.9,61.9,100,29.96,4.0,West,6.9,-,N/A,,Overcast,270,2013-05-11 15:35:00
11:55 AM,63.0,63.0,100,29.96,7.0,West,8.1,-,N/A,,Overcast,270,2013-05-11 15:55:00
12:15 PM,63.9,63.3,98,29.95,10.0,West,9.2,-,N/A,,Overcast,260,2013-05-11 16:15:00
12:35 PM,65.3,63.1,93,29.95,10.0,West,9.2,-,N/A,,Overcast,280,2013-05-11 16:35:00
12:55 PM,66.6,63.7,90,29.94,10.0,WSW,10.4,-,N/A,,Overcast,250,2013-05-11 16:55:00
1:15 PM,68.0,63.5,85,29.94,10.0,West,10.4,-,N/A,,Overcast,260,2013-05-11 17:15:00
1:35 PM,68.5,63.5,84,29.93,10.0,WNW,8.1,-,0.01,,Overcast,290,2013-05-11 17:35:00
1:55 PM,68.9,62.6,80,29.93,10.0,West,8.1,-,0.01,,Overcast,260,2013-05-11 17:55:00
2:15 PM,70.0,61.9,75,29.92,10.0,West,8.1,-,N/A,,Mostly Cloudy,260,2013-05-11 18:15:00
2:35 PM,69.3,62.2,78,29.92,10.0,WSW,10.4,-,N/A,,Overcast,240,2013-05-11 18:35:00
2:55 PM,70.7,62.2,75,29.90,10.0,West,10.4,-,N/A,,Mostly Cloudy,260,2013-05-11 18:55:00
3:15 PM,70.3,62.6,76,29.90,10.0,WSW,10.4,-,N/A,,Mostly Cloudy,240,2013-05-11 19:15:00
3:35 PM,69.8,61.7,75,29.89,10.0,West,6.9,-,N/A,,Overcast,260,2013-05-11 19:35:00
3:55 PM,67.1,63.7,89,29.90,5.0,WSW,9.2,-,0.03,Rain,Heavy Rain,250,2013-05-11 19:55:00
4:15 PM,66.2,63.1,90,29.90,7.0,WNW,10.4,17.3,0.03,Rain-Thunderstorm,Thunderstorms and Rain,290,2013-05-11 20:15:00
4:35 PM,63.0,60.3,91,29.90,10.0,NW,6.9,-,0.23,,Overcast,320,2013-05-11 20:35:00
4:55 PM,63.3,60.3,90,29.89,10.0,NW,5.8,-,0.23,Rain,Rain,320,2013-05-11 20:55:00
5:15 PM,64.2,61.7,91,29.89,10.0,NW,5.8,-,0.01,,Mostly Cloudy,320,2013-05-11 21:15:00
5:35 PM,64.4,61.9,92,29.89,10.0,NW,3.5,-,0.01,,Scattered Clouds,320,2013-05-11 21:35:00
5:55 PM,64.9,62.2,91,29.88,10.0,NW,3.5,-,0.01,,Mostly Cloudy,320,2013-05-11 21:55:00
6:15 PM,63.7,62.6,96,29.88,3.0,West,4.6,-,0.08,Rain-Thunderstorm,Heavy Thunderstorms and Rain,280,2013-05-11 22:15:00
6:35 PM,62.4,61.2,96,29.89,10.0,WNW,4.6,-,0.10,,Overcast,290,2013-05-11 22:35:00
6:55 PM,63.3,62.2,96,29.88,10.0,Calm,Calm,-,0.10,Rain,Light Rain,0,2013-05-11 22:55:00
7:15 PM,64.2,61.9,92,29.88,10.0,WSW,4.6,-,N/A,,Overcast,250,2013-05-11 23:15:00
7:35 PM,61.9,61.0,97,29.89,10.0,SW,5.8,-,N/A,,Mostly Cloudy,230,2013-05-11 23:35:00
7:55 PM,60.8,60.3,98,29.89,10.0,SW,5.8,-,N/A,,Overcast,220,2013-05-11 23:55:00
8:15 PM,60.1,59.9,99,29.90,10.0,Calm,Calm,-,N/A,,Overcast,0,2013-05-12 00:15:00
8:35 PM,60.1,60.1,100,29.90,10.0,Calm,Calm,-,N/A,,Overcast,0,2013-05-12 00:35:00
8:55 PM,59.5,59.5,100,29.91,10.0,Calm,Calm,-,N/A,,Overcast,0,2013-05-12 00:55:00
9:15 PM,60.4,60.4,100,29.92,10.0,NW,5.8,-,N/A,,Overcast,310,2013-05-12 01:15:00
9:35 PM,61.3,57.4,87,29.92,10.0,NNW,9.2,-,N/A,,Overcast,340,2013-05-12 01:35:00
9:55 PM,60.8,55.6,83,29.93,10.0,NNW,5.8,-,N/A,,Overcast,340,2013-05-12 01:55:00
10:15 PM,59.9,54.3,82,29.93,10.0,NNW,10.4,18.4,N/A,,Overcast,340,2013-05-12 02:15:00
10:35 PM,59.2,53.8,82,29.95,10.0,NW,5.8,-,N/A,,Mostly Cloudy,320,2013-05-12 02:35:00
10:55 PM,58.6,53.8,84,29.94,10.0,NNW,5.8,-,N/A,,Mostly Cloudy,340,2013-05-12 02:55:00
11:15 PM,58.1,53.8,86,29.94,10.0,NNW,5.8,-,N/A,,Scattered Clouds,340,2013-05-12 03:15:00
11:35 PM,58.1,53.8,86,29.95,10.0,North,9.2,-,N/A,,Clear,350,2013-05-12 03:35:00
11:55 PM,56.8,53.6,89,29.96,10.0,NNW,4.6,-,N/A,,Clear,330,2013-05-12 03:55:00